User: anonymous   Login
Location: Caltech
(34.1382°N, 118.1253°W)
Time: 23:08:09
(UTC-07:00)
Language:

Cosmos 1833 - Orbit

View from above orbital plane
View from above orbital plane
View from above satellite
View from above satellite

Ground track
Ground track

The orbit data is extracted from the following two-line orbital elements,

1 17589U 87027A   16120.81122535 -.00000211  00000-0 -87280-4 0  9996
2 17589  70.9207 333.4189 0023463 229.0571 130.8519 14.12883056501913
Epoch (UTC): 29 April 2016 19:28:09
Eccentricity: 0.0023463
inclination: 70.9207°
perigee height: 832 km
apogee height: 866 km
right ascension of ascending node: 333.4189°
argument of perigee: 229.0571°
revolutions per day: 14.12883056
mean anomaly at epoch: 130.8519°
orbit number at epoch: 50191

The dashed part of the orbit path shows where the satellite is in the earth's shadow,  

DLR